RH
45 40 33 26 28 26 26 18 20 22 23 19 17 20 21 20 25 28 54 58 59 62 72 84 75 79 82 83 74 70 73 68 83 86 89 84 70 62 71 74 72 78 74 71 71 84 86 90 87
45 33 28 23 28 29 22 19 20 22 20 18 18 21 22 22 26 36 44 62 60 62 72 73 78 75 83 85 76 72 80 69 90 93 84 69 61 65 69 74 80 82 79 78 76 71 64 66 70
42 32 25 26 27 28 24 20 16 21 18 16 21 22 21 26 33 32 48 62 61 65 70 74 81 80 83 88 83 80 81 76 84 91 70 71 68 68 70 77 83 73 70 80 82 79 80 82 85
34 27 25 29 28 24 24 18 22 22 18 18 18 22 23 32 33 41 53 67 62 64 70 88 81 84 87 91 87 87 81 80 89 78 58 67 73 75 73 76 80 72 60 72 79 88 88 85 83
34 28 29 32 26 22 22 21 21 22 21 18 17 21 22 31 42 49 62 66 60 66 70 86 80 85 90 93 93 91 84 80 79 81 64 70 76 82 78 77 74 73 64 74 84 95 94 91 93
34 28 31 30 25 25 23 20 22 21 19 18 17 18 21 33 42 54 63 63 63 68 74 76 90 94 90 90 94 90 88 81 83 73 76 82 76 74 75 80 74 77 70 83 91 94 96 93 90
32 32 26 25 24 24 25 20 23 20 19 19 18 20 20 27 48 60 61 63 68 67 73 74 91 98 90 90 87 83 88 82 80 83 80 82 73 78 85 82 82 79 81 85 86 89 89 89 85
35 31 28 31 26 27 23 24 21 22 20 18 19 20 22 26 53 60 63 64 66 70 73 73 78 86 88 94 86 84 83 77 70 74 80 80 72 78 87 86 80 81 83 85 88 87 83 82 79
45 38 35 32 30 25 28 27 23 25 25 24 21 21 25 35 54 58 60 65 66 69 73 75 72 76 84 85 90 87 84 79 65 66 76 75 74 74 75 79 73 78 81 84 82 82 79 70 64
45 43 33 26 27 30 26 31 29 29 26 24 25 23 26 38 46 51 51 51 58 63 68 73 74 75 83 84 87 84 82 83 74 71 71 67 67 66 67 74 74 77 79 80 80 80 61 56 53
45 46 31 42 37 37 37 39 34 31 31 26 24 23 26 29 32 39 42 41 49 54 62 71 78 80 84 85 85 78 76 74 75 75 74 69 66 66 68 73 75 81 81 70 72 52 49 48 46
55 43 43 40 44 49 46 38 42 35 28 22 29 28 31 29 28 28 35 39 43 53 62 71 84 90 85 83 82 73 72 75 74 75 69 64 65 70 69 69 74 68 69 61 53 44 40 36 32
53 41 46 43 50 46 42 44 41 37 30 29 30 32 33 29 29 29 29 34 41 48 55 68 79 87 88 85 78 74 71 77 75 75 70 68 68 69 76 66 64 69 58 48 42 37 31 26 24
47 52 49 48 45 43 48 40 37 35 30 29 29 29 26 27 26 27 28 29 28 37 43 55 74 86 87 85 80 76 73 75 77 73 73 74 74 77 67 64 69 56 48 45 33 27 24 22 21
54 61 47 44 42 44 43 48 44 33 30 29 28 25 27 25 24 28 28 28 27 26 29 41 56 70 75 80 81 77 73 78 78 72 75 80 78 71 68 66 62 53 42 30 28 26 24 23 22
56 56 56 42 47 45 48 41 28 28 31 34 30 28 26 24 24 22 24 26 28 29 30 31 40 56 68 74 78 76 73 78 75 74 81 82 74 74 66 66 57 43 25 27 27 28 27 24 24
55 52 56 48 39 41 49 46 36 40 39 39 33 32 31 31 31 29 24 25 29 29 29 31 37 41 56 68 74 76 73 79 85 88 84 82 79 72 69 64 41 29 29 29 25 28 26 24 24
48 61 50 48 40 46 47 46 38 35 34 35 33 32 32 32 32 31 30 30 28 29 30 31 35 44 57 68 75 80 81 86 85 83 84 84 76 70 68 44 30 28 29 28 27 25 27 27 25
53 56 56 46 44 50 46 42 35 31 32 33 30 28 27 27 25 28 31 31 33 34 34 35 40 49 62 71 88 86 82 81 79 87 84 78 70 65 47 32 30 30 29 27 24 26 26 28 27
59 64 62 48 42 50 46 45 37 33 32 29 27 24 22 20 22 21 27 29 31 32 34 38 45 56 66 73 77 82 88 80 70 73 71 63 58 45 30 32 32 30 29 29 27 27 27 28 29
58 64 62 63 52 47 50 45 28 22 21 22 24 24 23 21 20 20 20 26 29 33 36 43 53 64 71 71 80 80 70 64 58 55 56 46 35 28 30 33 31 31 31 32 30 30 27 25 30
65 45 51 58 64 69 48 57 31 25 25 22 21 20 21 20 21 21 20 22 25 31 40 50 64 70 73 78 73 69 69 63 56 46 39 37 36 30 32 32 31 30 29 31 29 29 28 25 27
62 51 54 56 64 67 58 83 36 32 32 27 22 19 18 19 20 21 23 23 23 32 46 58 70 72 75 74 71 71 68 62 49 44 36 30 29 32 32 31 30 30 29 30 30 30 29 28 24
58 61 63 61 75 91 56 69 41 28 24 23 21 19 18 17 21 22 22 25 26 35 56 64 71 72 73 72 72 73 65 56 45 37 32 30 32 33 32 31 31 29 30 31 31 32 33 31 30
66 87 75 84 93 63 35 50 43 26 24 23 21 18 21 20 20 24 27 30 36 40 60 67 69 70 72 72 73 72 62 50 46 36 31 32 32 32 32 30 29 30 32 32 32 33 34 34 32
72 69 68 64 50 40 40 59 33 22 23 21 24 25 33 34 34 26 27 34 40 49 60 64 66 66 70 72 71 66 53 48 44 35 32 30 31 31 31 29 28 28 29 30 32 33 34 35 34
79 94 58 79 58 70 44 32 25 22 23 24 25 34 38 39 43 37 29 33 40 51 58 62 63 65 68 67 58 57 52 44 42 38 33 31 31 30 29 28 28 29 30 31 31 29 31 33 35
70 57 89 93 81 66 40 34 33 26 25 26 32 34 39 42 42 41 34 36 44 52 59 62 62 63 63 58 49 49 48 49 41 34 33 31 29 28 29 29 29 30 31 32 32 32 34 34 35
86 95 98 72 76 64 50 33 19 23 21 25 33 39 47 49 45 48 39 45 53 59 65 65 63 61 59 53 52 53 54 47 34 31 31 29 28 28 28 29 29 30 30 31 30 31 34 38 41
43 59 66 94 83 86 84 63 23 27 34 41 36 39 45 53 53 56 56 57 64 68 68 66 62 59 57 52 49 52 45 34 32 30 28 28 28 28 28 28 29 30 31 30 29 32 38 42 44
Wind_Speed
9 8 5 4 6 5 7 4 4 3 4 0 4 6 4 7 3 1 4 8 11 21 21 20 18 18 16 15 13 10 8 7 9 10 11 10 8 3 3 4 5 5 6 2 0 5 6 6 5
7 4 2 2 6 8 7 6 7 1 5 8 6 7 8 2 1 5 10 7 15 20 19 19 20 19 17 14 13 11 9 9 10 13 12 7 3 6 6 6 5 5 6 5 3 1 2 2 2
2 2 4 4 8 12 6 7 6 1 4 3 3 3 3 1 2 5 5 11 18 20 18 18 21 20 15 14 12 10 10 10 11 15 11 8 6 7 6 4 4 5 6 6 6 6 5 5 4
4 4 3 9 14 10 9 2 3 3 3 0 3 5 2 1 2 3 8 10 19 18 17 18 21 18 15 13 12 10 10 11 13 14 12 6 6 6 6 5 2 3 5 6 6 5 5 5 4
5 3 9 12 18 14 9 7 7 6 5 4 4 1 1 3 3 5 13 13 17 18 17 17 19 18 15 14 12 11 11 12 12 12 12 8 8 6 8 7 4 2 4 4 4 4 4 4 4
6 5 8 15 17 10 11 10 10 10 7 6 4 4 1 3 4 8 13 12 15 17 16 16 17 19 15 14 13 12 12 12 11 13 10 6 4 1 7 9 4 2 3 3 3 4 3 3 3
12 10 16 17 14 14 12 6 12 11 9 7 2 5 3 3 5 10 12 13 14 15 15 16 16 16 14 13 13 12 11 12 13 11 9 6 3 4 9 7 4 3 2 3 3 3 3 3 4
6 7 15 13 14 18 6 6 4 8 6 1 2 4 3 4 5 10 11 13 14 15 15 15 16 15 14 13 13 12 11 10 12 13 11 8 4 5 7 6 4 3 2 2 2 3 3 3 5
3 8 12 20 16 11 4 9 7 1 6 2 3 2 4 2 7 10 11 12 13 15 15 16 16 16 15 13 13 12 11 10 10 11 11 8 6 5 5 7 5 3 2 1 1 3 2 3 5
10 11 16 10 12 7 8 5 3 5 9 10 7 4 3 3 7 11 12 14 15 16 17 16 17 16 15 14 13 13 11 11 10 9 9 8 7 7 7 6 5 3 2 2 2 2 4 4 4
8 14 11 7 8 5 9 9 8 10 13 13 12 4 1 1 1 9 12 12 13 14 16 18 18 17 17 15 14 14 13 12 11 10 9 9 8 7 6 5 4 3 3 1 1 3 4 4 5
9 12 11 5 7 6 11 9 13 15 18 7 7 7 9 10 8 7 10 13 12 13 16 18 20 20 20 17 17 15 15 14 13 12 11 10 10 8 7 6 5 5 4 1 2 2 4 5 5
12 9 7 8 8 10 12 18 20 19 19 18 18 16 16 15 15 12 10 11 12 14 16 18 20 21 22 21 18 17 16 16 14 14 13 12 11 10 9 6 5 5 3 2 1 3 4 5 5
2 6 9 8 12 11 16 21 17 22 20 22 22 24 22 21 20 18 14 12 14 15 16 17 20 22 21 22 20 19 18 16 15 14 15 13 12 12 12 10 9 6 4 2 2 3 3 4 5
5 10 11 14 13 14 11 19 20 25 21 23 22 20 20 21 25 23 22 18 14 15 16 17 18 20 22 22 21 21 20 18 16 16 16 14 13 13 15 13 10 7 4 3 2 3 3 4 5
4 5 5 4 3 5 8 16 6 11 14 19 19 20 21 22 23 29 28 24 19 15 14 14 15 20 22 23 23 22 21 20 18 18 17 18 18 17 17 13 11 7 5 4 3 2 3 5 7
8 8 9 10 8 7 12 12 6 3 6 11 13 13 14 16 18 25 27 25 23 19 17 16 14 17 21 23 23 23 22 22 20 21 21 22 21 20 17 15 13 8 6 4 3 3 4 6 8
6 10 10 11 2 8 16 21 19 19 21 20 19 18 17 17 17 17 19 21 22 21 19 18 17 16 18 20 22 22 22 20 21 25 25 25 24 22 19 16 11 9 6 5 4 4 5 7 10
5 8 11 10 9 17 19 23 23 22 24 24 23 22 22 23 20 22 22 20 17 17 18 18 17 17 20 23 25 25 23 20 20 26 27 26 25 23 20 16 12 9 7 6 5 3 5 7 11
13 15 17 16 14 13 19 32 25 27 29 26 25 25 24 24 23 22 25 25 22 20 19 19 19 20 24 24 24 22 19 19 18 23 28 24 25 22 18 15 12 10 9 7 6 5 3 5 9
16 17 15 17 17 19 21 26 12 5 11 16 21 24 24 23 23 23 22 28 24 22 20 20 20 22 24 23 23 21 18 19 16 20 27 25 23 21 18 15 13 11 9 7 6 6 5 4 4
15 12 14 13 11 6 2 11 16 14 14 11 12 14 17 18 20 22 23 24 27 24 21 21 21 24 26 28 26 29 26 25 22 24 28 26 22 19 16 15 13 11 9 8 6 5 4 3 3
7 5 7 9 12 13 17 7 11 5 11 10 14 15 15 15 16 19 20 27 28 26 23 23 23 25 26 30 27 28 24 20 24 26 31 28 23 17 15 14 13 11 9 7 6 5 3 3 2
3 6 10 10 8 9 18 15 20 15 12 9 8 10 14 15 12 16 20 22 25 23 22 24 26 27 27 28 28 30 30 29 29 31 32 29 22 15 13 13 12 10 9 7 6 4 3 1 1
12 4 3 4 6 8 2 11 21 6 6 10 19 17 14 15 14 14 14 15 20 21 23 25 27 27 28 28 29 29 30 31 36 41 36 26 20 16 14 13 11 9 8 7 5 4 2 1 3
15 13 6 6 6 7 2 12 8 10 11 13 8 12 11 14 14 16 15 14 20 24 25 26 28 27 29 28 28 29 29 30 28 30 28 23 21 17 15 13 11 10 8 6 4 2 1 2 3
6 10 14 15 22 14 15 23 26 26 24 17 14 6 9 14 15 13 14 13 18 22 27 28 28 26 28 27 26 29 30 31 31 24 24 23 19 18 15 13 11 9 7 5 3 2 1 2 3
13 1 5 6 6 12 14 17 14 13 11 8 9 4 10 12 16 12 11 11 17 22 25 26 25 26 28 28 26 32 30 33 26 27 24 25 20 18 16 13 10 8 6 3 2 1 2 3 5
9 7 7 8 10 8 17 14 8 9 12 16 4 6 7 12 14 14 8 7 13 18 22 24 25 27 27 26 25 29 31 29 25 27 21 21 19 17 15 12 10 7 5 2 1 2 3 5 6
17 13 20 9 11 8 12 18 7 5 2 4 6 6 6 9 11 11 6 4 11 17 22 24 25 25 25 25 27 33 32 30 26 24 20 19 18 15 14 11 9 6 3 1 2 3 5 6 8
Wind_Direction
331 321 315 244 243 239 240 222 268 249 216 299 305 255 297 326 244 340 129 156 146 156 161 165 174 167 163 158 157 152 143 132 144 148 141 125 109 100 101 86 67 51 47 69 150 58 61 64 71
324 318 258 254 250 235 225 218 217 212 316 306 271 237 244 237 356 90 137 163 157 157 160 168 173 175 168 161 161 154 147 138 140 142 133 130 124 149 135 111 90 67 60 74 90 61 28 20 5
286 317 256 236 239 238 253 202 182 329 319 239 250 247 293 73 107 122 107 153 159 161 160 168 178 180 174 164 162 155 150 153 150 142 142 147 141 148 150 132 105 63 79 83 79 74 61 56 46
204 188 190 237 232 237 247 188 135 304 166 31 331 245 192 53 77 98 138 153 160 166 162 175 180 184 180 172 164 158 149 146 152 148 147 148 169 172 186 187 153 68 84 86 81 64 54 38 28
195 227 235 236 242 243 234 251 260 280 298 309 319 111 250 117 133 123 146 155 167 168 169 166 182 187 180 175 167 161 157 153 153 158 162 173 184 206 214 217 219 103 77 72 61 37 25 23 15
195 245 225 232 234 221 247 253 259 260 271 290 250 262 61 107 149 147 154 159 167 170 171 168 183 185 181 177 171 166 163 165 165 161 170 169 186 269 198 182 179 120 80 57 33 29 29 16 34
231 218 232 242 244 242 238 233 245 263 260 250 306 244 95 119 100 143 151 157 167 173 171 171 178 181 185 184 177 170 167 168 176 176 179 190 168 91 147 155 146 133 93 51 44 38 24 8 345
234 238 234 230 236 243 199 208 250 244 248 315 247 224 158 38 136 151 156 160 166 172 175 175 180 187 186 186 185 176 172 170 173 181 186 197 184 134 141 139 150 145 131 81 47 9 355 343 344
215 227 227 227 234 226 209 216 199 234 244 209 178 282 33 13 166 172 172 172 173 180 181 181 183 190 188 185 188 182 179 173 166 178 192 194 189 170 139 169 158 144 137 97 334 349 22 30 354
211 228 235 241 245 230 210 239 223 231 212 225 216 169 59 101 189 200 201 194 190 189 188 187 188 193 192 190 187 184 186 178 175 170 175 184 191 185 164 159 161 173 205 266 309 353 24 39 6
206 233 232 230 239 240 244 242 239 245 242 238 230 236 281 297 186 233 233 227 208 202 194 194 191 192 195 195 191 191 189 187 188 183 180 178 173 170 167 166 158 154 141 141 67 51 43 24 4
228 238 243 245 227 254 246 266 246 241 248 271 275 275 282 270 263 254 240 235 220 212 209 201 197 192 196 197 197 199 193 191 190 188 180 170 168 168 172 168 148 133 140 127 68 38 27 12 6
232 247 247 253 251 257 268 255 260 266 255 255 261 262 262 267 266 262 248 241 227 223 215 211 205 201 198 197 197 199 200 195 193 186 181 176 173 166 157 149 150 166 167 135 73 30 10 359 354
250 258 265 262 256 262 260 262 257 252 255 257 254 255 253 253 257 257 246 244 235 233 225 214 211 209 204 201 197 197 196 195 191 188 182 176 172 169 173 179 177 175 175 176 64 34 9 348 341
263 278 268 256 251 261 261 261 243 254 255 255 253 249 250 250 247 248 251 249 243 241 236 225 219 214 211 209 204 197 192 189 190 186 181 179 180 187 179 176 176 177 166 99 64 23 4 340 335
258 264 274 116 193 225 209 263 254 270 242 251 252 254 253 247 248 250 250 253 252 251 234 223 216 215 215 212 206 201 191 187 187 184 181 184 187 185 178 176 171 169 147 114 75 22 347 349 337
220 259 240 280 247 268 215 276 259 244 249 262 263 261 260 259 254 252 249 249 248 246 244 229 226 223 216 211 206 200 192 186 183 181 184 187 186 181 180 175 163 149 137 114 88 37 18 358 347
249 231 244 253 194 267 269 264 266 268 274 271 268 265 259 256 255 257 249 246 246 243 240 239 231 218 209 201 198 195 189 185 180 183 189 184 180 178 176 164 149 141 131 109 91 65 34 16 348
273 267 265 270 277 299 273 273 275 272 268 264 262 259 260 259 256 251 253 250 242 236 233 231 218 204 192 190 184 185 181 176 173 180 181 178 177 175 172 157 148 139 130 113 100 82 43 17 360
253 265 269 276 273 280 292 286 285 271 261 257 257 256 255 253 254 248 242 245 240 237 227 220 214 200 193 191 189 186 170 166 165 168 172 171 170 171 168 151 147 142 129 108 87 74 56 31 20
238 249 264 270 292 289 286 285 261 279 259 253 250 254 257 253 250 247 240 235 234 232 223 214 206 195 189 185 176 160 147 149 146 155 163 166 167 162 161 151 146 138 128 113 95 73 58 35 25
256 258 259 268 284 273 78 290 286 284 282 247 251 245 248 250 244 246 245 237 228 226 220 209 197 190 185 176 175 173 167 163 164 158 160 162 166 163 153 150 144 137 127 116 104 87 73 43 14
238 222 236 261 266 283 250 253 278 200 264 254 262 267 263 260 255 241 241 235 230 221 209 201 191 186 185 179 181 173 166 159 155 158 157 156 162 160 151 148 143 135 127 123 120 106 88 67 13
63 228 249 257 256 247 245 209 273 267 269 249 243 277 291 283 270 253 242 239 227 219 200 191 186 186 185 179 179 174 164 156 153 153 154 159 160 154 150 146 141 135 132 130 128 121 107 93 318
218 171 253 235 208 249 324 210 247 273 215 236 280 297 308 300 279 266 249 230 224 206 195 190 185 184 182 178 176 174 167 168 165 163 161 160 161 160 156 147 140 138 141 139 137 131 124 216 277
205 212 229 258 239 294 153 247 242 251 261 257 280 294 323 328 300 266 247 225 216 200 191 190 186 180 178 175 172 168 163 162 165 162 163 164 160 158 155 148 143 143 143 142 141 140 179 252 280
175 215 233 274 271 273 253 262 279 268 257 250 260 286 311 337 327 284 246 225 218 199 186 186 186 179 174 169 163 161 161 158 161 163 156 149 149 150 150 146 146 147 146 146 150 181 243 264 275
221 278 196 203 256 248 251 255 254 270 306 236 213 280 320 337 355 325 257 226 206 198 183 179 182 175 169 163 158 159 161 164 158 156 150 149 145 148 147 146 148 149 148 152 164 239 258 277 295
195 220 217 274 244 259 269 263 306 304 274 235 247 309 327 330 357 348 290 222 194 181 170 167 169 166 163 160 153 152 156 163 152 151 146 142 143 145 146 148 148 150 151 161 217 269 286 299 304
228 232 223 234 238 240 253 261 223 247 239 214 297 318 347 336 348 5 330 200 177 166 161 160 159 160 159 153 143 150 151 150 146 145 143 141 140 142 144 144 144 145 148 182 269 292 296 301 297